www.pogodaiklimat.ru

Погода и климат >> Архив погоды >> Россия >> Ставропольский край >> Красногвардейское


ПОГОДА в Красногвардейском

  • Прогноз погоды в Красногвардейском
  • Монитор погоды в Красногвардейском

АРХИВ ПОГОДЫ в Красногвардейском

Время (UTC), дата Ветер
(напр.,м/с)
 
Видим.   Явления Облачность Т
(С)
Тd
(С)
f
(%)
Тe
(С)
Тes
(С)
Комфортность P
(гПа)
Po
(гПа)
Тmin
(С)
Tmax
(С)
R
(мм)
R24
(мм)
S
(см)
03 19.04 В 2 20 км 10/0 2000 м
[Ac As Cs]
+1.0 -4.4 67 -2 -2 1022.3 1014.7 +0.9
06 19.04 В 5 20 км 6/0 2000 м
[Ac As]
+5.7 -5.6 44 +2 +4 1022.4 1015.0
09 19.04 В 5-10
{12}
20 км 9/0 2000 м
[Ac As]
+9.9 -5.9 32 +7 +10 1021.8 1014.4
12 19.04 В 6-11
{13}
20 км 9/3 600 м
[Cu med, cong Ac As]
+10.8 -7.9 26 +8 +9 1021.3 1014.0
15 19.04 СВ 4
{11}
20 км 10/4 1000 м
[Sc Ac trans]
+8.2 -8.4 30 +6 +6 1021.8 1014.4 +11.1
18 19.04 В 3 20 км 6/0 2000 м
[Ac trans]
+5.9 -7.1 39 +3 +3 1023.2 1015.7
21 19.04 В 2 20 км 4/0 2000 м
[Ac lent]
+2.4 -5.7 55 -0 -0 1023.1 1015.5
00 20.04 В 1 20 км 3/0 2000 м
[Ac lent]
+0.4 -5.8 63 -1 -1 1022.7 1015.1
03 20.04 СВ 1 20 км 8/0 2000 м
[Ac lent Ci fib]
-0.6 -4.3 76 -2 -2 1023.2 1015.4 -0.9
06 20.04 В 4 20 км 8/0 2000 м
[Ac trans Ci fib]
+6.6 -4.2 46 +4 +7 1023.6 1016.1
09 20.04 В 6-11
{12}
20 км 8/3 600 м
[Cu med, cong Ci]
+11.1 -5.6 31 +9 +12 1023.3 1015.9
12 20.04 В 5-10
{13}
20 км 8/3 600 м
[Cu med, cong Ac lent Ci fib]
+12.5 -6.8 25 +11 +13 1022.6 1015.2
15 20.04 ЮВ 4
{10}
20 км 10/1 600 м
[Cu med, cong Ci fib]
+11.2 -4.1 34 +9 +10 1022.8 1015.4 +13.2
18 20.04 штиль 0 20 км 10/0
[Ci fib]
+6.1 -0.4 63 +6 +6 1023.6 1016.1
21 20.04 СВ 1 20 км 10/0
[Ci fib]
+3.6 -1.3 70 +2 +2 1023.4 1015.8
00 21.04 В 1 20 км 10/0
[Ci sp]
+3.9 -1.2 69 +3 +3 1022.4 1014.8
03 21.04 В 1 20 км 10/0 2000 м
[Ac As Ci sp]
+3.4 -1.4 71 +2 +2 1022.4 1014.8 +3.3
06 21.04 В 4 20 км 6/0 2000 м
[Ac lent Ci fib]
+10.8 -3.3 37 +9 +13 1022.5 1015.1
09 21.04 В 5-11
{14}
20 км 4/0 2000 м
[Ac lent Ci fib]
+13.7 -4.9 27 +12 +19 1021.7 1014.4
12 21.04 В 5-10
{13}
20 км 3/3 600 м
[Cu med, cong]
+15.3 -5.4 24 +14 +18 1021.1 1013.9
15 21.04 В 4
{12}
20 км 8/4 600 м
[Cu med, cong Ac lent]
+13.0 -3.7 31 +12 +12 1021.6 1014.3 +15.3
18 21.04 В 2 20 км ясно +9.6 -1.3 47 +9 +9 1022.6 1015.1
21 21.04 В 1 20 км ясно +5.1 -1.1 64 +4 +4 1022.7 1015.2
00 22.04 В 2 20 км ясно +3.4 -1.0 73 +1 +1 1022.9 1015.3
03 22.04 В 1 20 км ясно +1.2 -1.6 82 -1 -0 1023.7 1016.1 +1.2
06 22.04 В 4
{10}
20 км 4/1 1000 м
[Cu med, cong Ac trans Ci fib]
+11.0 +1.1 50 +9 +13 1023.8 1016.4
09 22.04 В 5-11
{12}
20 км 9/8 600 м
[Cu med, cong Ci fib]
+14.0 -2.9 31 +13 +14 1023.7 1016.3
12 22.04 В 5-10
{12}
20 км 8/8 600 м
[Cu med, cong]
+15.6 -5.0 24 +15 +16 1022.8 1015.5
15 22.04 В 3
{10}
20 км 8/3 600 м
[Cu med, cong Ac cuf]
+15.1 -3.8 27 +15 +15 1022.9 1015.5 +16.4
18 22.04 В 1 20 км ясно +8.7 -3.0 44 +9 +9 1024.6 1017.1
21 22.04 В 1 20 км ясно +4.6 -2.1 62 +4 +4 1025.5 1017.9
00 23.04 В 1 20 км ясно +3.1 -1.9 70 +2 +2 1025.9 1018.3
03 23.04 штиль 0 20 км ясно +1.1 -1.8 81 0 +1 1026.8 1019.2 +0.3
06 23.04 В 1 20 км ясно +12.9 +1.2 45 +13 +23 1027.8 1020.4
09 23.04 СВ 1 20 км 3/3 600 м
[Cu med, cong]
+17.6 -3.0 24 +19 +32 опасность
простуды
1027.6 1020.3
12 23.04 С 1 20 км 6/0
[Ci fib]
+18.6 -3.8 22 +20 +30 1027.2 1019.9
15 23.04 штиль 0 20 км 4/0
[Ci fib]
+17.3 -3.5 24 +17 +19 1027.1 1019.8 +19.5
18 23.04 штиль 0 20 км ясно +9.4 -1.2 47 +9 +9 1028.1 1020.6
21 23.04 штиль 0 20 км ясно +5.8 -0.5 64 +5 +5 1028.0 1020.5
00 24.04 З 1 20 км ясно +5.2 -1.7 61 +4 +4 1028.0 1020.5
03 24.04 З 1 20 км 3/0
[Ci fib]
+5.7 -1.5 60 +5 +5 1028.6 1021.0 +4.7
06 24.04 З 2 20 км 9/0 2000 м
[Ac trans]
+13.7 +2.3 46 +13 +17 1028.2 1020.8
09 24.04 З 3 20 км 10/0 2000 м
[Ac cast Cs]
+19.4 -0.2 27 +20 +28 1026.8 1019.5
12 24.04 СЗ 2 20 км 8/3 600 м
[Cu hum Ac cast Ci fib]
+21.8 -1.6 21 +21 +26 комфорт 1025.3 1018.2
15 24.04 СЗ 1 20 км 8/0 2000 м
[Ac cast Ci fib]
+19.6 0.0 27 +21 +22 комфорт 1025.0 1017.7 +22.2
18 24.04 З 1 20 км 8/0 2000 м
[Ac cast]
+14.9 +4.3 49 +16 +16 1025.7 1018.4
21 24.04 З 1 20 км ясно +9.6 +3.2 64 +9 +9 1026.4 1018.9
00 25.04 З 1 20 км ясно +7.3 +1.3 66 +7 +7 1026.5 1019.0
03 25.04 ЮЗ 3 20 км ясно +7.6 +1.6 66 +6.5
06 25.04 З 2 20 км ясно +14.2 +5.5 56 +14 +23 1027.1 1019.7
09 25.04 З 2 20 км ясно +20.0 +7.0 43 +21 +38 комфорт 1026.1 1019.0
12 25.04 С 1 20 км 3/3 1000 м
[Cu med, cong]
+23.1 +3.3 27 +23 +31 комфорт 1025.0 1017.9
15 25.04 штиль 0 20 км ясно +21.5 +1.3 26 +21 +23 комфорт 1023.8 1016.7 +23.8
18 25.04 Ю 1 20 км ясно +12.5 +4.3 57 +13 +13 1024.5 1017.1
21 25.04 штиль 0 20 км ясно +10.2 +5.3 72 +10 +10 1023.8 1016.4
00 26.04 штиль 0 20 км 4/0 2000 м
[Ac trans]
+7.6 +4.0 78 +7 +7 1023.7 1016.2

 

Местоположение метеостанции Красногвардейское (Ставропольский край, Россия): широта 45.83 долгота 41.48 высота над уровнем моря 60 м.

В архиве по умолчанию представлена погода в Красногвардейском за последнюю неделю. Архивные данные за месяц целиком и за предыдущие месяцы, начиная с января 2011 года, Вы можете получить, выбрав интересующий диапазон дат из раскрывающегося списка и нажав кнопку "Ввод!".


*Определитесь, кто Вы:
робот инопланетянин человек

Внимание! Время в таблицах - всемирное. Для получения местного времени необходимо прибавить поправку, которая равна 3 ч.

Смотрите также архив погоды в соседних городах и на ближайших метеорологических станциях:

Погода в Новоалександровске (Ставропольский край, Россия) (43 км)
Погода в Городовиковске (Калмыкия, Россия) (46 км)
Погода в Изобильном (Ставропольский край, Россия) (54 км)
Погода в Белой Глине (Краснодарский край, Россия) (54 км)
Погода в Гиганте (Ростовская область, Россия) (77 км)
Погода в Кропоткине (Краснодарский край, Россия) (84 км)
Погода в Ставрополе (Ставропольский край, Россия) (92 км)
Погода в Армавире (Краснодарский край, Россия) (99 км)
Погода в Тихорецке (Краснодарский край, Россия) (109 км)
Погода в Светлограде (Ставропольский край, Россия) (119 км)

Пояснения к столбцам:

Ветер - указаны скорость ветра в м/с - средняя за 10 мин, порывы в срок и между сроками (в фигурных скобках) и направление, откуда дует ветер: С - северный, СВ - северо-восточный, В - восточный, ЮВ - юго-восточный, Ю - южный, ЮЗ - юго-западный, З - западный, СЗ - северо-западный.
Видимость - горизонтальная дальность видимости в метрах или километрах. При видимости от 1 до 10 км при отсутствии осадков обычно наблюдается дымка, при ухудшении видимости до 1 км и менее - туман. В сухую погоду видимость может ухудшаться дымом, пылью или мглою.
Явления - указаны атмосферные явления, наблюдавшиеся в срок или в последний час перед сроком; фигурными скобками обозначены явления, наблюдавшиеся между сроками (за 1-3 часа до срока); квадратными скобками обозначены град или гололедные отложения с указанием их диаметра в мм.
Облачность - указаны через наклонную черту общая и нижняя облачность в баллах и высота нижней границы облаков в метрах; квадратными скобками обозначены формы облаков: Ci - перистые, Cs - перисто-слоистые, Cc - перисто-кучевые, Ac - высококучевые, As - высокослоистые, Sc - слоисто-кучевые, Ns - слоисто-дождевые, Cu - кучевые, Cb - кучево-дождевые. Подробнее классификацию облаков см. в Атласе облаков (PDF).
T - Температура воздуха - температура, измеренная на высоте 2 м над землей.
Td - Температура точки росы - температура, при понижении до которой содержащийся в воздухе водяной пар достигнет насыщения.
f - Относительная влажность воздуха - влажноcть воздуха, измеренная на высоте 2 м над землей.
Te - Эффективная температура - температура, которую ощущает одетый по сезону человек в тени. Характеристика душности погоды. При расчете учитывается влияние влажности воздуха и скорости ветра на теплоощущения человека.
Tes - Эффективная температура на солнце - температура, которую ощущает человек, с поправкой на солнечный нагрев. Характеристика знойности погоды. Зависит от высоты солнца над горизонтом, облачности и скорости ветра. Ночью, в пасмурную погоду, а также при ветре 12 м/с и более поправка равна нулю.
P - Атмосферное давление - приведенное к уровню моря атмосферное давление.
Po - Атмосферное давление - измеренное на уровне метеостанции атмосферное давление.
Tmin - Минимальная температура - минимум температуры воздуха на высоте 2 м над землей.
Tmax - Максимальная температура - максимум температуры воздуха на высоте 2 м над землей.
R - Количество осадков - Количество выпавших осадков за период времени, мм. При наведении курсора мыши на число - период времени, за который выпало указанное количество осадков.
R24 - Количество осадков - Количество выпавших осадков за 24 часа, мм.
S - Снежный покров - Высота снежного покрова, см. При наведении курсора мыши на число - состояние снежного покрова и степень покрытия местности в баллах.